EW7376 Weather Reports


Display with metric or nautical units.
time (UTC)temp
F
wind
direction
speed
MPH
gust
MPH
rain 1hr
in
rain 24hr
in
rain mn
in
humidity
%
barometer
mb
20260906213022 100 149 0.0 0.0 0.00 0.00 0.00 33 1009.6
20260906211520 100 121 0.0 0.0 0.00 0.00 0.00 35 1009.7
20260906210018 100 129 0.0 0.0 0.00 0.00 0.00 35 1009.9
20260906204522 100 124 0.0 0.0 0.00 0.00 0.00 34 1010.2
20260906203005 99 100 0.0 0.0 0.00 0.00 0.00 36 1010.4
20260906201506 99 115 0.0 0.0 0.00 0.00 0.00 38 1010.5
20260906200004 99 90 0.0 0.0 0.00 0.00 0.00 38 1010.8
20260906194504 99 112 0.0 0.0 0.00 0.00 0.00 38 1011.0
20260906193001 99 101 0.0 0.0 0.00 0.00 0.00 38 1011.2
20260906191502 99 117 0.0 0.0 0.00 0.00 0.00 38 1011.3
20260906190101 98 123 0.0 0.0 0.00 0.00 0.00 38 1011.5
20260906184600 97 120 0.0 0.0 0.00 0.00 0.00 41 1011.8
20260906183100 97 51 0.0 0.0 0.00 0.00 0.00 40 1011.9
20260906181540 98 121 0.0 0.0 0.00 0.00 0.00 38 1012.2
20260906180057 98 142 0.0 0.0 0.00 0.00 0.00 38 1012.3
20260906174529 97 93 0.0 0.0 0.00 0.00 0.00 40 1012.5
20260906173026 98 134 0.0 0.0 0.00 0.00 0.00 39 1012.7
20260906171525 97 101 0.0 0.0 0.00 0.00 0.00 40 1012.9
20260906170025 96 78 0.0 0.0 0.00 0.00 0.00 42 1013.0
20260906164523 96 128 0.0 0.0 0.00 0.00 0.00 43 1013.2
20260906163023 95 123 0.0 0.0 0.00 0.00 0.00 44 1013.2
20260906161522 95 96 0.0 0.0 0.00 0.00 0.00 47 1013.2
20260906160021 94 123 0.0 0.0 0.00 0.00 0.00 48 1013.3
20260906154515 92 201 0.0 0.0 0.00 0.00 0.00 51 1013.3
20260906153008 91 148 0.0 0.0 0.00 0.00 0.00 53 1013.2
20260906151509 91 169 0.0 0.0 0.00 0.00 0.00 55 1013.2
20260906150013 90 150 0.0 0.0 0.00 0.00 0.00 57 1013.1
20260906144511 88 190 0.0 0.0 0.00 0.00 0.00 60 1013.1
20260906143005 87 159 0.0 0.0 0.00 0.00 0.00 63 1013.3
20260906141505 86 131 0.0 0.0 0.00 0.00 0.00 67 1013.4
20260906140005 84 134 0.0 0.0 0.00 0.00 0.00 71 1013.2
20260906134545 82 138 0.0 0.0 0.00 0.00 0.00 73 1013.1
20260906133046 81 146 0.0 0.0 0.00 0.00 0.00 75 1013.0
20260906131540 79 159 0.0 0.0 0.00 0.00 0.00 77 1012.9
20260906130028 77 159 0.0 0.0 0.00 0.00 0.00 79 1012.8
20260906124525 76 159 0.0 0.0 0.00 0.00 0.00 80 1012.6
20260906123025 76 159 0.0 0.0 0.00 0.00 0.00 81 1012.6
20260906121525 76 159 0.0 0.0 0.00 0.00 0.00 81 1012.4
20260906120022 76 159 0.0 0.0 0.00 0.00 0.00 81 1012.3
20260906114522 76 159 0.0 0.0 0.00 0.00 0.00 79 1012.3
20260906113022 76 159 0.0 0.0 0.00 0.00 0.00 79 1012.2
20260906111505 76 159 0.0 0.0 0.00 0.00 0.00 78 1011.9
20260906110003 76 159 0.0 0.0 0.00 0.00 0.00 78 1011.7
20260906104503 77 159 0.0 0.0 0.00 0.00 0.00 77 1011.7
20260906103101 77 159 0.0 0.0 0.00 0.00 0.00 77 1011.8
20260906101600 77 159 0.0 0.0 0.00 0.00 0.00 77 1011.6
20260906100059 77 159 0.0 0.0 0.00 0.00 0.00 76 1011.6
20260906094559 77 159 0.0 0.0 0.00 0.00 0.00 75 1011.5
20260906093056 77 159 0.0 0.0 0.00 0.00 0.00 75 1011.4
20260906091537 77 159 0.0 0.0 0.00 0.00 0.00 74 1011.4
20260906090036 78 159 0.0 0.0 0.00 0.00 0.00 73 1011.3
20260906084538 78 159 0.0 0.0 0.00 0.00 0.00 73 1011.2
20260906083031 78 159 0.0 0.0 0.00 0.00 0.00 72 1011.1
20260906081520 78 159 0.0 0.0 0.00 0.00 0.00 71 1011.1
20260906080027 79 159 0.0 0.0 0.00 0.00 0.00 70 1011.1
20260906074516 79 159 0.0 0.0 0.00 0.00 0.00 69 1011.0
20260906073014 80 159 0.0 0.0 0.00 0.00 0.00 67 1011.0
20260906071511 81 159 0.0 0.0 0.00 0.00 0.00 66 1011.1
20260906070008 81 159 0.0 0.0 0.00 0.00 0.00 64 1011.0
20260906064554 82 159 0.0 0.0 0.00 0.00 0.00 63 1011.1
20260906063057 83 162 0.0 0.0 0.00 0.00 0.00 62 1011.0
20260906061556 83 161 0.0 0.0 0.00 0.00 0.00 61 1011.0
20260906060052 84 156 0.0 0.0 0.00 0.00 0.00 60 1011.2
20260906054551 84 154 0.0 0.0 0.00 0.00 0.00 59 1011.3
20260906053053 83 140 0.0 0.0 0.00 0.00 0.00 60 1011.2
20260906051553 83 95 0.0 0.0 0.00 0.00 0.00 60 1011.3
20260906050044 85 150 0.0 0.0 0.00 0.00 0.00 56 1011.1
20260906044530 85 150 0.0 0.0 0.00 0.00 0.00 56 1010.9
20260906043032 85 144 0.0 0.0 0.00 0.00 0.00 55 1010.8
20260906041628 86 135 0.0 0.0 0.00 0.00 0.00 54 1010.9
20260906040030 86 129 0.0 0.0 0.00 0.00 0.00 54 1011.0
20260906034534 86 128 0.0 0.0 0.00 0.00 0.00 53 1011.4
20260906033027 87 126 0.0 0.0 0.00 0.00 0.00 52 1011.2
20260906031520 88 126 0.0 0.0 0.00 0.00 0.00 51 1011.1
20260906030017 88 116 0.0 0.0 0.00 0.00 0.00 51 1010.9
20260906024619 88 116 0.0 0.0 0.00 0.00 0.00 50 1010.7
20260906023054 88 116 0.0 0.0 0.00 0.00 0.00 49 1010.6
20260906021536 89 116 0.0 0.0 0.00 0.00 0.00 48 1010.4
20260906020039 89 115 0.0 0.0 0.00 0.00 0.00 47 1010.1
20260906014527 90 115 0.0 0.0 0.00 0.00 0.00 46 1010.0
20260906013016 91 113 0.0 0.0 0.00 0.00 0.00 44 1009.8
20260906011512 92 113 0.0 0.0 0.00 0.00 0.00 43 1009.5
20260906010006 93 109 0.0 0.0 0.00 0.00 0.00 42 1009.4
20260906004502 94 112 0.0 0.0 0.00 0.00 0.00 40 1009.4
20260906003112 95 119 0.0 0.0 0.00 0.00 0.00 39 1009.4
20260906001556 96 117 0.0 0.0 0.00 0.00 0.00 38 1009.3
20260905234538 97 117 0.0 0.0 0.00 0.00 0.00 36 1009.1
20260905233038 98 120 0.0 0.0 0.00 0.00 0.00 36 1009.1
20260905231539 98 72 0.0 0.0 0.00 0.00 0.00 36 1009.1
20260905230035 98 105 0.0 0.0 0.00 0.00 0.00 36 1009.0
20260905224535 97 117 0.0 0.0 0.00 0.00 0.00 36 1009.0
20260905223030 98 136 0.0 0.0 0.00 0.00 0.00 35 1009.0
20260905221527 97 183 0.0 0.0 0.00 0.00 0.00 38 1009.1
20260905220025 97 129 0.0 0.0 0.00 0.00 0.00 38 1009.2
20260905214524 97 117 0.0 0.0 0.00 0.00 0.00 37 1009.3